Surface/Precipitation History
12/13/2019 21:46  to  12/14/2019 21:46
Change End Date:
Date/Time
(MST)
Sf
Temp Chem Water Layer Surface Precipitation
Sfc Pvt Sub Frz Factor Pct Dpth DpthThk IcePct Cond Salin FI Type Intens Accum Rate
12/14/2019 21:32 Ice Warning 11.3F - 21F 32F 5 0% - - 100% 0 mhos 102 - None None - -
12/14/2019 21:27 Ice Warning 11.3F - 21F 32F 5 0% - - 100% 0 mhos 101 - None None - -
12/14/2019 21:17 Ice Warning 11.3F - 21F 32F 5 0% - - 100% 0 mhos 100 - None None - -
12/14/2019 21:17 Ice Warning 11.3F - 21F 32F 5 0% - - 100% 0 mhos 100 - None None - -
12/14/2019 21:07 Ice Warning 11.3F - 21F 32F 5 0% - - 100% 0 mhos 99 - None None - -
12/14/2019 21:02 Ice Warning 11.3F - 21F 32F 5 0% - - 100% 0 mhos 99 - None None - -
12/14/2019 20:57 Ice Warning 11.3F - 21F 32F 5 0% - - 100% 0 mhos 99 - None None - -
12/14/2019 20:47 Ice Warning 11.3F - 21F 32F 5 0% - - 100% 0 mhos 97 - None None - -
12/14/2019 20:47 Ice Warning 11.3F - 21F 32F 5 0% - - 100% 0 mhos 97 - None None - -
12/14/2019 20:37 Ice Warning 11.3F - 21F 32F 5 0% - - 100% 0 mhos 95 - None None - -
12/14/2019 20:32 Ice Warning 11.3F - 21F 32F 5 0% - - 100% 0 mhos 95 - None None - -
12/14/2019 20:27 Ice Warning 11.3F - 21F 32F 5 0% - - 100% 0 mhos 94 - None None - -
12/14/2019 20:17 Ice Warning 11.1F - 21F 32F 5 0% - - 100% 0 mhos 93 - None None - -
12/14/2019 20:17 Ice Warning 10.9F - 21F 32F 5 0% - - 100% 0 mhos 94 - None None - -
12/14/2019 20:07 Ice Warning 10.9F - 21F 32F 5 0% - - 100% 0 mhos 92 - None None - -
Date/Time
(MST)
Sf
Temp Chem Water Layer Surface Precipitation
Sfc Pvt Sub Frz Factor Pct Dpth DpthThk IcePct Cond Salin FI Type Intens Accum Rate
12/14/2019 20:02 Ice Warning 10.9F - 21F 32F 5 0% - - 100% 0 mhos 91 - None None - -
12/14/2019 19:57 Ice Warning 10.8F - 21F 32F 5 0% - - 100% 0 mhos 91 - None None - -
12/14/2019 19:47 Ice Warning 10.8F - 21F 32F 5 0% - - 100% 0 mhos 89 - None None - -
12/14/2019 19:47 Ice Warning 10.8F - 21F 32F 5 0% - - 100% 0 mhos 89 - None None - -
12/14/2019 19:37 Ice Warning 10.8F - 21F 32F 5 0% - - 100% 0 mhos 87 - None None - -
12/14/2019 19:32 Ice Warning 10.6F - 21F 32F 5 0% - - 100% 0 mhos 87 - None None - -
12/14/2019 19:26 Ice Warning 10.4F - 21F 32F 5 0% - - 100% 0 mhos 87 - None None - -
12/14/2019 19:17 Ice Warning 10.4F - 21F 32F 5 0% - - 100% 0 mhos 84 - Yes - - -
12/14/2019 19:16 Ice Warning 10.4F - 21F 32F 5 0% - - 100% 0 mhos 84 - Yes - - -
12/14/2019 19:06 Ice Warning 10.4F - 21F 32F 5 0% - - 100% 0 mhos 81 - None None - -
12/14/2019 19:02 Ice Warning 10.2F - 21F 32F 5 0% - - 100% 0 mhos 81 - Yes - - -
12/14/2019 18:56 Ice Warning 10.2F - 21F 32F 5 0% - - 100% 0 mhos 79 - None None - -
12/14/2019 18:47 Ice Warning 10.2F - 21F 32F 5 0% - - 100% 0 mhos 78 - Yes - - -
12/14/2019 18:46 Ice Warning 10.2F - 21F 32F 5 0% - - 100% 0 mhos 78 - Yes - - -
12/14/2019 18:36 Ice Warning 10.2F - 21F 32F 5 0% - - 100% 0 mhos 75 - Yes - - -
Date/Time
(MST)
Sf
Temp Chem Water Layer Surface Precipitation
Sfc Pvt Sub Frz Factor Pct Dpth DpthThk IcePct Cond Salin FI Type Intens Accum Rate
12/14/2019 18:32 Ice Warning 10.0F - 21F 32F 5 0% - - 100% 0 mhos 74 - None None - -
12/14/2019 18:26 Ice Warning 9.9F - 21F 32F 5 0% - - 100% 0 mhos 73 - Yes - - -
12/14/2019 18:17 Ice Warning 9.5F - 21F 32F 5 0% - - 100% 0 mhos 72 - None None - -
12/14/2019 18:16 Ice Warning 9.5F - 21F 32F 5 0% - - 100% 0 mhos 72 - None None - -
12/14/2019 18:06 Ice Warning 9.1F - 21F 32F 5 0% - - 100% 0 mhos 62 - Yes - - -
12/14/2019 18:02 Ice Warning 8.8F - 21F 32F 5 0% - - 100% 0 mhos 61 - None None - -
12/14/2019 17:56 Ice Warning 8.6F - 21F 32F 5 0% - - 100% 0 mhos 60 - None None - -
12/14/2019 17:47 Ice Warning 8.4F - 21F 32F 5 0% - - 100% 0 mhos 58 - None None - -
12/14/2019 17:46 Ice Warning 8.4F - 21F 32F 5 0% - - 100% 0 mhos 58 - None None - -
12/14/2019 17:36 Ice Warning 8.4F - 21F 32F 5 0% - - 100% 0 mhos 60 - None None - -
12/14/2019 17:32 Ice Warning 8.4F - 21F 32F 5 0% - - 100% 0 mhos 60 - None None - -
12/14/2019 17:26 Ice Warning 8.4F - 21F 32F 5 0% - - 100% 0 mhos 58 - None None - -
12/14/2019 17:17 Ice Warning 8.1F - 21F 32F 5 0% - - 100% 0 mhos 57 - None None - -
12/14/2019 17:16 Ice Warning 8.1F - 21F 32F 5 0% - - 100% 0 mhos 57 - None None - -
12/14/2019 17:06 Ice Warning 8.4F - 21F 32F 5 0% - - 100% 0 mhos 56 - None None - -
Date/Time
(MST)
Sf
Temp Chem Water Layer Surface Precipitation
Sfc Pvt Sub Frz Factor Pct Dpth DpthThk IcePct Cond Salin FI Type Intens Accum Rate
12/14/2019 17:02 Ice Warning 8.4F - 21F 32F 5 0% - - 100% 0 mhos 56 - None None - -
12/14/2019 16:56 Ice Warning 8.8F - 21F 32F 5 0% - - 100% 0 mhos 54 - None None - -
12/14/2019 16:47 Ice Warning 9.3F - 21F 32F 5 0% - - 100% 0 mhos 52 - None None - -
12/14/2019 16:45 Ice Warning 9.3F - 21F 32F 5 0% - - 100% 0 mhos 52 - None None - -
12/14/2019 16:35 Ice Warning 9.9F - 21F 32F 5 0% - - 100% 0 mhos 46 - Yes - - -
12/14/2019 16:32 Ice Warning 9.9F - 21F 32F 5 0% - - 100% 0 mhos 45 - None None - -
12/14/2019 16:25 Ice Warning 10.2F - 21F 32F 5 0% - - 100% 0 mhos 43 - None None - -
12/14/2019 16:17 Ice Warning 10.4F - 21F 32F 5 0% - - 100% 0 mhos 40 - Yes - - -
12/14/2019 16:15 Ice Warning 10.4F - 21F 32F 5 0% - - 100% 0 mhos 43 - Yes - - -
12/14/2019 16:05 Ice Warning 11.1F - 21F 32F 5 0% - - 100% 0 mhos 35 - Yes - - -
12/14/2019 16:02 Ice Warning 11.3F - 21F 32F 5 0% - - 100% 0 mhos 33 - None None - -
12/14/2019 15:55 Ice Warning 11.7F - 21F 32F 5 0% - - 100% 0 mhos 32 - Yes - - -
12/14/2019 15:46 Dry 12.2F - 21F - - - - - - 0 mhos 29 - Yes - - -
12/14/2019 15:45 Dry 12.4F - 21F - - - - - - 0 mhos 28 - None None - -
12/14/2019 15:35 Dry 13.3F - 21F - - - - - - 0 mhos 24 - None None - -
Date/Time
(MST)
Sf
Temp Chem Water Layer Surface Precipitation
Sfc Pvt Sub Frz Factor Pct Dpth DpthThk IcePct Cond Salin FI Type Intens Accum Rate
12/14/2019 15:31 Dry 13.3F - 21F - - - - - - 0 mhos 23 - Yes - - -
12/14/2019 15:25 Dry 13.6F - 21F - - - - - - 0 mhos 22 - None None - -
12/14/2019 15:17 Dry 14.0F - 21F - - - - - - 0 mhos 23 - None None - -
12/14/2019 15:15 Dry 14.2F - 21F - - - - - - 0 mhos 23 - None None - -
12/14/2019 15:05 Dry 15.1F - 21F - - - - - - 0 mhos 25 - None None - -
12/14/2019 15:02 Dry 15.3F - 21F - - - - - - 0 mhos 25 - None None - -
12/14/2019 14:55 Dry 15.8F - 21F - - - - - - 0 mhos 25 - None None - -
12/14/2019 14:47 Dry 16.2F - 21F - - - - - - 0 mhos 26 - None None - -
12/14/2019 14:45 Dry 16.2F - 21F - - - - - - 0 mhos 26 - None None - -
12/14/2019 14:35 Dry 16.7F - 21F - - - - - - 0 mhos 26 - None None - -
12/14/2019 14:32 Dry 16.9F - 21F - - - - - - 0 mhos 26 - None None - -
12/14/2019 14:25 Dry 17.1F - 21F - - - - - - 0 mhos 27 - None None - -
12/14/2019 14:17 Dry 17.4F - 21F - - - - - - 0 mhos 25 - None None - -
12/14/2019 14:15 Dry 17.6F - 21F - - - - - - 0 mhos 25 - None None - -
12/14/2019 14:05 Dry 18.3F - 21F - - - - - - 0 mhos 26 - None None - -
Date/Time
(MST)
Sf
Temp Chem Water Layer Surface Precipitation
Sfc Pvt Sub Frz Factor Pct Dpth DpthThk IcePct Cond Salin FI Type Intens Accum Rate
12/14/2019 14:02 Dry 18.3F - 21F - - - - - - 0 mhos 27 - None None - -
12/14/2019 13:54 Dry 18.7F - 21F - - - - - - 0 mhos 32 - None None - -
12/14/2019 13:47 Dry 19.0F - 21F - - - - - - 0 mhos 34 - None None - -
12/14/2019 13:44 Dry 19.2F - 21F - - - - - - 0 mhos 34 - None None - -
12/14/2019 13:34 Dry 19.2F - 21F - - - - - - 0 mhos 36 - Yes - - -
12/14/2019 13:32 Dry 19.2F - 21F - - - - - - 0 mhos 37 - None None - -
12/14/2019 13:24 Dry 19.6F - 21F - - - - - - 0 mhos 37 - None None - -
12/14/2019 13:16 Dry 20.1F - 21F - - - - - - 0 mhos 36 - None None - -
12/14/2019 13:14 Dry 20.3F - 21F - - - - - - 0 mhos 35 - None None - -
12/14/2019 13:04 Dry 20.1F - 21F - - - - - - 0 mhos 35 - None None - -
12/14/2019 13:02 Dry 20.1F - 21F - - - - - - 0 mhos 35 - None None - -
12/14/2019 12:54 Dry 19.9F - 21F - - - - - - 0 mhos 35 - None None - -
12/14/2019 12:47 Dry 19.8F - 21F - - - - - - 0 mhos 35 - None None - -
12/14/2019 12:44 Dry 19.9F - 21F - - - - - - 0 mhos 36 - None None - -
12/14/2019 12:34 Dry 19.9F - 21F - - - - - - 0 mhos 37 - None None - -
Date/Time
(MST)
Sf
Temp Chem Water Layer Surface Precipitation
Sfc Pvt Sub Frz Factor Pct Dpth DpthThk IcePct Cond Salin FI Type Intens Accum Rate
12/14/2019 12:32 Dry 19.8F - 21F - - - - - - 0 mhos 38 - None None - -
12/14/2019 12:24 Dry 19.2F - 21F - - - - - - 0 mhos 40 - None None - -
12/14/2019 12:16 Dry 18.7F - 21F - - - - - - 0 mhos 41 - Yes - - -
12/14/2019 12:14 Dry 18.5F - 21F - - - - - - 0 mhos 41 - None None - -
12/14/2019 12:04 Dry 18.1F - 21F - - - - - - 0 mhos 45 - None None - -
12/14/2019 12:01 Dry 18.0F - 21F - - - - - - 0 mhos 46 - None None - -
12/14/2019 11:54 Dry 17.4F - 21F - - - - - - 0 mhos 50 - None None - -
12/14/2019 11:46 Dry 17.1F - 21F - - - - - - 0 mhos 54 - None None - -
12/14/2019 11:44 Dry 16.9F - 21F - - - - - - 0 mhos 55 - None None - -
12/14/2019 11:34 Dry 17.1F - 21F - - - - - - 0 mhos 57 - None None - -
12/14/2019 11:32 Dry 17.2F - 21F - - - - - - 0 mhos 56 - None None - -
12/14/2019 11:23 Dry 17.2F - 21F - - - - - - 0 mhos 57 - None None - -
12/14/2019 11:16 Dry 17.2F - 21F - - - - - - 0 mhos 57 - None None - -
12/14/2019 11:13 Dry 16.9F - 21F - - - - - - 0 mhos 57 - None None - -
12/14/2019 11:03 Dry 15.3F - 21F - - - - - - 0 mhos 61 - None None - -
Date/Time
(MST)
Sf
Temp Chem Water Layer Surface Precipitation
Sfc Pvt Sub Frz Factor Pct Dpth DpthThk IcePct Cond Salin FI Type Intens Accum Rate
12/14/2019 11:01 Dry 15.3F - 21F - - - - - - 0 mhos 62 - None None - -
12/14/2019 10:53 Dry 14.9F - 21F - - - - - - 0 mhos 61 - None None - -
12/14/2019 10:46 Dry 14.9F - 21F - - - - - - 0 mhos 60 - None None - -
12/14/2019 10:43 Dry 14.5F - 21F - - - - - - 0 mhos 60 - None None - -
12/14/2019 10:33 Dry 14.2F - 21F - - - - - - 0 mhos 59 - None None - -
12/14/2019 10:31 Dry 14.2F - 21F - - - - - - 0 mhos 58 - None None - -
12/14/2019 10:23 Dry 13.6F - 21F - - - - - - 0 mhos 58 - Yes - - -
12/14/2019 10:16 Dry 13.5F - 21F - - - - - - 0 mhos 56 - None None - -
12/14/2019 10:13 Dry 13.3F - 21F - - - - - - 0 mhos 55 - None None - -
12/14/2019 10:03 Dry 12.2F - 21F - - - - - - 0 mhos 56 - Yes - - -
12/14/2019 10:01 Dry 12.2F - 21F - - - - - - 0 mhos 56 - Yes - - -
12/14/2019 09:53 Dry 11.7F - 21F - - - - - - 0 mhos 48 - Yes - - -
12/14/2019 09:46 Dry 11.3F - 21F - - - - - - 0 mhos 45 - Yes - - -
12/14/2019 09:43 Dry 11.3F - 21F - - - - - - 0 mhos 44 - None None - -
12/14/2019 09:33 Dry 10.6F - 21F - - - - - - 0 mhos 41 - Yes - - -
Date/Time
(MST)
Sf
Temp Chem Water Layer Surface Precipitation
Sfc Pvt Sub Frz Factor Pct Dpth DpthThk IcePct Cond Salin FI Type Intens Accum Rate
12/14/2019 09:31 Dry 10.4F - 21F - - - - - - 0 mhos 40 - Yes - - -
12/14/2019 09:23 Dry 10.2F - 21F - - - - - - 0 mhos 43 - None None - -
12/14/2019 09:16 Dry 9.9F - 21F - - - - - - 0 mhos 42 - None None - -
12/14/2019 09:13 Dry 9.9F - 21F - - - - - - 0 mhos 42 - None None - -
12/14/2019 09:03 Dry 9.3F - 21F - - - - - - 0 mhos 39 - Yes - - -
12/14/2019 09:01 Dry 9.3F - 21F - - - - - - 0 mhos 39 - Yes - - -
12/14/2019 08:53 Dry 8.8F - 21F - - - - - - 0 mhos 36 - None None - -
12/14/2019 08:46 Dry 8.4F - 21F - - - - - - 0 mhos 34 - Yes - - -
12/14/2019 08:43 Dry 8.2F - 21F - - - - - - 0 mhos 33 - Yes - - -
12/14/2019 08:33 Dry 7.7F - 21F - - - - - - 0 mhos 31 - None None - -
12/14/2019 08:31 Dry 7.7F - 21F - - - - - - 0 mhos 31 - None None - -
12/14/2019 08:22 Dry 7.3F - 21F - - - - - - 0 mhos 31 - None None - -
12/14/2019 08:16 Dry 7.3F - 21F - - - - - - 0 mhos 31 - None None - -
12/14/2019 08:12 Dry 7.2F - 21F - - - - - - 0 mhos 31 - None None - -
12/14/2019 08:02 Dry 7.0F - 21F - - - - - - 0 mhos 31 - None None - -
Date/Time
(MST)
Sf
Temp Chem Water Layer Surface Precipitation
Sfc Pvt Sub Frz Factor Pct Dpth DpthThk IcePct Cond Salin FI Type Intens Accum Rate
12/14/2019 08:01 Dry 7.0F - 21F - - - - - - 0 mhos 31 - None None - -
12/14/2019 07:52 Dry 6.8F - 21F - - - - - - 0 mhos 31 - None None - -
12/14/2019 07:46 Dry 6.4F - 21F - - - - - - 0 mhos 36 - None None - -
12/14/2019 07:42 Dry 6.4F - 21F - - - - - - 0 mhos 36 - None None - -
12/14/2019 07:32 Dry 6.4F - 21F - - - - - - 0 mhos 36 - None None - -
12/14/2019 07:32 Dry 6.4F - 21F - - - - - - 0 mhos 36 - None None - -
12/14/2019 07:22 Dry 6.4F - 21F - - - - - - 0 mhos 33 - None None - -
12/14/2019 07:16 Dry 6.4F - 21F - - - - - - 0 mhos 38 - None None - -
12/14/2019 07:12 Dry 6.4F - 21F - - - - - - 0 mhos 38 - None None - -
12/14/2019 07:02 Dry 6.4F - 21F - - - - - - 0 mhos 39 - None None - -
12/14/2019 07:02 Dry 6.4F - 21F - - - - - - 0 mhos 39 - None None - -
12/14/2019 06:52 Dry 6.4F - 21F - - - - - - 0 mhos 39 - None None - -
12/14/2019 06:47 Dry 6.4F - 21F - - - - - - 0 mhos 35 - None None - -
12/14/2019 06:42 Dry 6.4F - 21F - - - - - - 0 mhos 35 - None None - -
12/14/2019 06:32 Dry 6.4F - 21F - - - - - - 0 mhos 36 - None None - -
Date/Time
(MST)
Sf
Temp Chem Water Layer Surface Precipitation
Sfc Pvt Sub Frz Factor Pct Dpth DpthThk IcePct Cond Salin FI Type Intens Accum Rate
12/14/2019 06:32 Dry 6.4F - 21F - - - - - - 0 mhos 36 - None None - -
12/14/2019 06:22 Dry 6.3F - 21F - - - - - - 0 mhos 37 - None None - -
12/14/2019 06:17 Dry 6.3F - 21F - - - - - - 0 mhos 38 - None None - -
12/14/2019 06:12 Dry 6.3F - 21F - - - - - - 0 mhos 38 - None None - -
12/14/2019 06:02 Dry 6.4F - 21F - - - - - - 0 mhos 39 - None None - -
12/14/2019 06:02 Dry 6.4F - 21F - - - - - - 0 mhos 39 - None None - -
12/14/2019 05:52 Dry 6.3F - 21F - - - - - - 0 mhos 39 - None None - -
12/14/2019 05:47 Dry 6.3F - 21F - - - - - - 0 mhos 40 - None None - -
12/14/2019 05:42 Dry 6.3F - 21F - - - - - - 0 mhos 41 - None None - -
12/14/2019 05:32 Dry 6.3F - 21F - - - - - - 0 mhos 41 - None None - -
12/14/2019 05:32 Dry 6.3F - 21F - - - - - - 0 mhos 41 - None None - -
12/14/2019 05:21 Dry 6.3F - 22F - - - - - - 0 mhos 43 - None None - -
12/14/2019 05:17 Dry 6.3F - 22F - - - - - - 0 mhos 44 - None None - -
12/14/2019 05:11 Dry 6.4F - 22F - - - - - - 0 mhos 44 - None None - -
12/14/2019 05:02 Dry 6.4F - 22F - - - - - - 0 mhos 46 - None None - -
Date/Time
(MST)
Sf
Temp Chem Water Layer Surface Precipitation
Sfc Pvt Sub Frz Factor Pct Dpth DpthThk IcePct Cond Salin FI Type Intens Accum Rate
12/14/2019 05:01 Dry 6.4F - 22F - - - - - - 0 mhos 46 - None None - -
12/14/2019 04:51 Dry 6.6F - 22F - - - - - - 0 mhos 47 - None None - -
12/14/2019 04:47 Dry 6.6F - 22F - - - - - - 0 mhos 47 - None None - -
12/14/2019 04:41 Dry 6.8F - 22F - - - - - - 0 mhos 47 - None None - -
12/14/2019 04:32 Dry 6.8F - 22F - - - - - - 0 mhos 48 - None None - -
12/14/2019 04:31 Dry 6.6F - 22F - - - - - - 0 mhos 49 - None None - -
12/14/2019 04:21 Dry 6.8F - 22F - - - - - - 0 mhos 49 - None None - -
12/14/2019 04:17 Dry 6.8F - 22F - - - - - - 0 mhos 50 - None None - -
12/14/2019 04:11 Dry 6.8F - 22F - - - - - - 0 mhos 50 - None None - -
12/14/2019 04:02 Dry 7.0F - 22F - - - - - - 0 mhos 51 - None None - -
12/14/2019 04:01 Dry 7.0F - 22F - - - - - - 0 mhos 51 - None None - -
12/14/2019 03:51 Dry 7.0F - 22F - - - - - - 0 mhos 52 - None None - -
12/14/2019 03:47 Dry 7.0F - 22F - - - - - - 0 mhos 52 - None None - -
12/14/2019 03:41 Dry 7.0F - 22F - - - - - - 0 mhos 53 - None None - -
12/14/2019 03:32 Dry 6.8F - 22F - - - - - - 0 mhos 54 - None None - -
Date/Time
(MST)
Sf
Temp Chem Water Layer Surface Precipitation
Sfc Pvt Sub Frz Factor Pct Dpth DpthThk IcePct Cond Salin FI Type Intens Accum Rate
12/14/2019 03:31 Dry 6.8F - 22F - - - - - - 0 mhos 54 - None None - -
12/14/2019 03:21 Dry 6.8F - 22F - - - - - - 0 mhos 55 - None None - -
12/14/2019 03:17 Dry 6.8F - 22F - - - - - - 0 mhos 55 - None None - -
12/14/2019 03:11 Dry 6.8F - 22F - - - - - - 0 mhos 56 - None None - -
12/14/2019 03:02 Dry 6.6F - 22F - - - - - - 0 mhos 57 - None None - -
12/14/2019 03:01 Dry 6.6F - 22F - - - - - - 0 mhos 57 - None None - -
12/14/2019 02:51 Dry 6.6F - 22F - - - - - - 0 mhos 58 - None None - -
12/14/2019 02:47 Dry 6.8F - 22F - - - - - - 0 mhos 58 - None None - -
12/14/2019 02:41 Dry 6.6F - 22F - - - - - - 0 mhos 59 - None None - -
12/14/2019 02:32 Dry 6.6F - 22F - - - - - - 0 mhos 59 - None None - -
12/14/2019 02:30 Dry 6.6F - 22F - - - - - - 0 mhos 60 - None None - -
12/14/2019 02:20 Dry 6.4F - 22F - - - - - - 0 mhos 61 - None None - -
12/14/2019 02:17 Dry 6.4F - 22F - - - - - - 0 mhos 62 - None None - -
12/14/2019 02:10 Dry 6.4F - 22F - - - - - - 0 mhos 63 - None None - -
12/14/2019 02:02 Dry 6.4F - 22F - - - - - - 0 mhos 64 - None None - -
Date/Time
(MST)
Sf
Temp Chem Water Layer Surface Precipitation
Sfc Pvt Sub Frz Factor Pct Dpth DpthThk IcePct Cond Salin FI Type Intens Accum Rate
12/14/2019 02:00 Dry 6.4F - 22F - - - - - - 0 mhos 65 - None None - -
12/14/2019 01:50 Dry 6.4F - 22F - - - - - - 0 mhos 66 - None None - -
12/14/2019 01:46 Dry 6.4F - 22F - - - - - - 0 mhos 66 - None None - -
12/14/2019 01:40 Dry 6.6F - 22F - - - - - - 0 mhos 67 - None None - -
12/14/2019 01:32 Dry 6.6F - 22F - - - - - - 0 mhos 68 - None None - -
12/14/2019 01:30 Dry 6.8F - 22F - - - - - - 0 mhos 68 - None None - -
12/14/2019 01:20 Dry 6.8F - 22F - - - - - - 0 mhos 69 - None None - -
12/14/2019 01:17 Dry 6.8F - 22F - - - - - - 0 mhos 70 - None None - -
12/14/2019 01:10 Dry 7.0F - 22F - - - - - - 0 mhos 70 - None None - -
12/14/2019 01:02 Dry 7.0F - 22F - - - - - - 0 mhos 71 - None None - -
12/14/2019 01:00 Dry 7.0F - 22F - - - - - - 0 mhos 71 - None None - -
12/14/2019 00:50 Dry 6.8F - 22F - - - - - - 0 mhos 72 - None None - -
12/14/2019 00:47 Dry 6.8F - 22F - - - - - - 0 mhos 72 - None None - -
12/14/2019 00:40 Dry 7.0F - 22F - - - - - - 0 mhos 73 - None None - -
12/14/2019 00:32 Dry 7.0F - 22F - - - - - - 0 mhos 73 - None None - -
Date/Time
(MST)
Sf
Temp Chem Water Layer Surface Precipitation
Sfc Pvt Sub Frz Factor Pct Dpth DpthThk IcePct Cond Salin FI Type Intens Accum Rate
12/14/2019 00:30 Dry 7.0F - 22F - - - - - - 0 mhos 73 - None None - -
12/14/2019 00:20 Dry 6.8F - 22F - - - - - - 0 mhos 74 - None None - -
12/14/2019 00:17 Dry 6.8F - 22F - - - - - - 0 mhos 74 - None None - -
12/14/2019 00:10 Dry 6.8F - 22F - - - - - - 0 mhos 74 - None None - -
12/14/2019 00:02 Dry 6.8F - 22F - - - - - - 0 mhos 75 - None None - -
12/14/2019 00:00 Dry 6.6F - 22F - - - - - - 0 mhos 76 - None None - -
12/13/2019 23:50 Dry 6.6F - 22F - - - - - - 0 mhos 75 - None None - -
12/13/2019 23:47 Dry 6.4F - 22F - - - - - - 0 mhos 76 - None None - -
12/13/2019 23:39 Dry 6.6F - 22F - - - - - - 0 mhos 76 - None None - -
12/13/2019 23:32 Dry 6.6F - 22F - - - - - - 0 mhos 77 - None None - -
12/13/2019 23:29 Dry 6.6F - 22F - - - - - - 0 mhos 76 - None None - -
12/13/2019 23:19 Dry 6.6F - 22F - - - - - - 0 mhos 77 - None None - -
12/13/2019 23:17 Dry 6.6F - 22F - - - - - - 0 mhos 78 - None None - -
12/13/2019 23:09 Dry 6.4F - 22F - - - - - - 0 mhos 78 - None None - -
12/13/2019 23:02 Dry 6.4F - 22F - - - - - - 0 mhos 80 - None None - -
Date/Time
(MST)
Sf
Temp Chem Water Layer Surface Precipitation
Sfc Pvt Sub Frz Factor Pct Dpth DpthThk IcePct Cond Salin FI Type Intens Accum Rate
12/13/2019 22:59 Dry 6.4F - 22F - - - - - - 0 mhos 87 - None None - -
12/13/2019 22:49 Dry 6.6F - 23F - - - - - - 0 mhos 87 - None None - -
12/13/2019 22:47 Dry 6.6F - 23F - - - - - - 0 mhos 89 - None None - -
12/13/2019 22:39 Dry 6.4F - 23F - - - - - - 0 mhos 89 - None None - -
12/13/2019 22:32 Dry 6.4F - 23F - - - - - - 0 mhos 90 - None None - -
12/13/2019 22:29 Dry 6.4F - 23F - - - - - - 0 mhos 89 - None None - -
12/13/2019 22:19 Dry 6.3F - 23F - - - - - - 0 mhos 91 - None None - -
12/13/2019 22:17 Dry 6.3F - 23F - - - - - - 0 mhos 91 - None None - -
12/13/2019 22:09 Dry 6.4F - 23F - - - - - - 0 mhos 91 - None None - -
12/13/2019 22:02 Dry 6.3F - 23F - - - - - - 0 mhos 92 - None None - -
12/13/2019 21:59 Dry 6.3F - 23F - - - - - - 0 mhos 93 - None None - -
12/13/2019 21:49 Dry 6.3F - 23F - - - - - - 0 mhos 93 - None None - -
12/13/2019 21:47 Dry 6.1F - 23F - - - - - - 0 mhos 94 - None None - -
Change End Date:

Copyright © 1998-2015 Vaisala, Inc.
All Rights Reserved
Send comments about the data to:
SCAN Web ® is a registered trademark of Vaisala, Inc.
SCAN Web Version 6.0